This is the latest recevied weather packets stored in our database for station/object EA1L-13. If no packets are shown the sender has not sent any weather packets the latest 10 day(s).
| Time | Temp. | Humidity | Pressure | Rain* | Wind** | Luminosity | Snow |
|---|---|---|---|---|---|---|---|
| 1777933804 | 10.56° C | 100% | 1013.4 hPa | 0 mm | - | - | - |
| 1777932904 | 10.56° C | 100% | 1013.5 hPa | 0 mm | - | - | - |
| 1777932005 | 10.56° C | 100% | 1013.6 hPa | 0 mm | - | - | - |
| 1777931105 | 10.56° C | 100% | 1013.6 hPa | 0 mm | - | - | - |
| 1777930204 | 10.56° C | 100% | 1013.5 hPa | 0 mm | - | - | - |
| 1777929304 | 10.56° C | 100% | 1013.6 hPa | 0 mm | - | - | - |
| 1777928405 | 10.56° C | 100% | 1013.7 hPa | 0 mm | - | - | - |
| 1777927504 | 10.56° C | 100% | 1013.7 hPa | 0.25 mm | - | - | - |
| 1777926605 | 10.56° C | 100% | 1013.6 hPa | 1.02 mm | - | - | - |
| 1777925704 | 10° C | 100% | 1013.4 hPa | 1.78 mm | - | - | - |
| 1777924805 | 10° C | 100% | 1013.3 hPa | 1.78 mm | - | - | - |
| 1777923904 | 10.56° C | 100% | 1013.3 hPa | 1.52 mm | - | - | - |
| 1777923004 | 10.56° C | 100% | 1013.5 hPa | 1.02 mm | - | - | - |
| 1777922104 | 10.56° C | 100% | 1013.1 hPa | 0.76 mm | - | - | - |
| 1777921204 | 10.56° C | 100% | 1013 hPa | 1.27 mm | - | - | - |
| 1777920304 | 10.56° C | 100% | 1012.9 hPa | 1.52 mm | - | - | - |
| 1777919404 | 10.56° C | 100% | 1012.9 hPa | 1.52 mm | - | - | - |
| 1777918504 | 10.56° C | 100% | 1012.9 hPa | 1.52 mm | - | - | - |
| 1777917604 | 10.56° C | 100% | 1013 hPa | 1.27 mm | - | - | - |
| 1777916705 | 10° C | 100% | 1013 hPa | 2.03 mm | - | - | - |
| 1777915805 | 10° C | 100% | 1013.1 hPa | 2.79 mm | - | - | - |
| 1777914905 | 10° C | 100% | 1013 hPa | 4.06 mm | - | - | - |
| 1777914004 | 10° C | 97% | 1013 hPa | 4.57 mm | - | - | - |
| 1777913104 | 10° C | 94% | 1012.7 hPa | 4.06 mm | - | - | - |
| 1777912205 | 10° C | 90% | 1012.7 hPa | 3.05 mm | - | - | - |
* Rain latest hour (hover to see other rain measurements)
** Current wind speed in m/s (hover to see current wind gust speed)